This is the latest recevied weather packets stored in our database for station/object K1RFS. If no packets are shown the sender has not sent any weather packets the latest 10 day(s).
| Time | Temp. | Humidity | Pressure | Rain* | Wind** | Luminosity | Snow |
|---|---|---|---|---|---|---|---|
| 1787752040 | 20.56° C | 48% | 1008.5 hPa | 0 mm | - | 26 W/m² | - |
| 1787751735 | 20.56° C | 48% | 1008.6 hPa | 0 mm | - | 23 W/m² | - |
| 1787751431 | 20.56° C | 50% | 1008.7 hPa | 0 mm | - | 21 W/m² | - |
| 1787751126 | 20.56° C | 50% | 1008.6 hPa | 0 mm | - | 20 W/m² | - |
| 1787750822 | 20° C | 51% | 1008.6 hPa | 0 mm | - | 17 W/m² | - |
| 1787750522 | 20° C | 53% | 1008.8 hPa | 0 mm | - | 13 W/m² | - |
| 1787750216 | 20° C | 53% | 1008.5 hPa | 0 mm | - | 9 W/m² | - |
| 1787749912 | 20° C | 53% | 1008.4 hPa | 0 mm | - | 7 W/m² | - |
| 1787749608 | 20° C | 52% | 1008.5 hPa | 0 mm | - | 5 W/m² | - |
| 1787749303 | 20.56° C | 52% | 1008.1 hPa | 0 mm | - | 4 W/m² | - |
| 1787748999 | 20° C | 54% | 1008.2 hPa | 0 mm | - | 3 W/m² | - |
| 1787748692 | 20.56° C | 52% | 1008.5 hPa | 0 mm | - | 2 W/m² | - |
| 1787748388 | 20.56° C | 51% | 1008.1 hPa | 0 mm | - | 1 W/m² | - |
| 1787748084 | 20.56° C | 51% | 1008.2 hPa | 0 mm | - | 1 W/m² | - |
| 1787747784 | 21.11° C | 49% | 1008.1 hPa | 0 mm | - | 0 W/m² | - |
| 1787747479 | 21.11° C | 49% | 1008 hPa | 0 mm | - | 0 W/m² | - |
| 1787747179 | 21.11° C | 48% | 1007.9 hPa | 0 mm | - | 0 W/m² | - |
| 1787746876 | 21.11° C | 48% | 1007.8 hPa | 0 mm | - | 0 W/m² | - |
| 1787746575 | 21.11° C | 48% | 1007.9 hPa | 0 mm | - | 0 W/m² | - |
| 1787746275 | 21.11° C | 48% | 1007.9 hPa | 0 mm | - | 0 W/m² | - |
| 1787745973 | 21.67° C | 47% | 1008 hPa | 0 mm | - | 0 W/m² | - |
| 1787745668 | 21.11° C | 48% | 1007.9 hPa | 0 mm | - | 0 W/m² | - |
| 1787745362 | 21.11° C | 47% | 1008 hPa | 0 mm | - | 0 W/m² | - |
| 1787745061 | 21.67° C | 47% | 1007.9 hPa | 0 mm | - | 0 W/m² | - |
| 1787744758 | 21.67° C | 46% | 1007.7 hPa | 0 mm | - | 0 W/m² | - |
* Rain latest hour (hover to see other rain measurements)
** Current wind speed in m/s (hover to see current wind gust speed)